| time (UTC) | temp C | wind direction | speed KPH | gust KPH | rain 1hr cm | rain 24hr cm | rain mn cm | humidity % | barometer mb |
| 20260505001731 | 16 | 271 | 3.2 | 6.4 | 0.00 | 0.00 | 0.00 | 69 | 1013.9 |
| 20260505001229 | 17 | 273 | 4.8 | 6.4 | 0.00 | 0.00 | 0.00 | 58 | 1013.5 |
| 20260505000725 | 17 | 248 | 4.8 | 11.3 | 0.00 | 0.00 | 0.00 | 57 | 1013.6 |
| 20260505000226 | 17 | 260 | 6.4 | 9.7 | 0.00 | 0.00 | 0.00 | 56 | 1013.7 |
| 20260504235720 | 17 | 247 | 3.2 | 9.7 | 0.00 | 0.00 | 0.00 | 58 | 1013.6 |
| 20260504235216 | 17 | 168 | 6.4 | 6.4 | 0.00 | 0.00 | 0.00 | 60 | 1013.7 |
| 20260504234713 | 17 | 238 | 6.4 | 9.7 | 0.00 | 0.00 | 0.00 | 59 | 1013.5 |
| 20260504234210 | 17 | 257 | 4.8 | 12.9 | 0.00 | 0.00 | 0.00 | 59 | 1013.4 |
| 20260504233706 | 17 | 253 | 6.4 | 6.4 | 0.00 | 0.00 | 0.00 | 56 | 1013.3 |
| 20260504233202 | 18 | 248 | 6.4 | 6.4 | 0.00 | 0.00 | 0.00 | 56 | 1013.4 |
| 20260504232700 | 18 | 163 | 6.4 | 9.7 | 0.00 | 0.00 | 0.00 | 53 | 1013.2 |
| 20260504232156 | 18 | 215 | 8.0 | 16.1 | 0.00 | 0.00 | 0.00 | 52 | 1013.2 |
| 20260504231653 | 19 | 256 | 6.4 | 11.3 | 0.00 | 0.00 | 0.00 | 50 | 1012.9 |
| 20260504231150 | 19 | 8 | 1.6 | 6.4 | 0.00 | 0.00 | 0.00 | 49 | 1013.0 |
| 20260504230646 | 19 | 189 | 0.0 | 1.6 | 0.00 | 0.00 | 0.00 | 49 | 1013.0 |
| 20260504230145 | 18 | 270 | 3.2 | 9.7 | 0.00 | 0.00 | 0.00 | 52 | 1013.4 |
| 20260504225643 | 18 | 189 | 4.8 | 12.9 | 0.00 | 0.00 | 0.00 | 49 | 1013.6 |
| 20260504225138 | 18 | 249 | 6.4 | 16.1 | 0.00 | 0.00 | 0.00 | 50 | 1013.3 |
| 20260504224636 | 19 | 270 | 3.2 | 9.7 | 0.00 | 0.00 | 0.00 | 53 | 1013.4 |
| 20260504224132 | 20 | 165 | 3.2 | 11.3 | 0.00 | 0.00 | 0.00 | 49 | 1013.4 |
| 20260504223630 | 20 | 248 | 4.8 | 9.7 | 0.00 | 0.00 | 0.00 | 47 | 1013.0 |
| 20260504223125 | 20 | 171 | 4.8 | 11.3 | 0.00 | 0.00 | 0.00 | 48 | 1012.9 |
| 20260504222623 | 20 | 207 | 3.2 | 9.7 | 0.00 | 0.00 | 0.00 | 49 | 1013.2 |
| 20260504222120 | 20 | 171 | 4.8 | 14.5 | 0.00 | 0.00 | 0.00 | 48 | 1013.3 |
| 20260504221617 | 20 | 216 | 4.8 | 11.3 | 0.00 | 0.00 | 0.00 | 48 | 1013.4 |
| 20260504221114 | 20 | 246 | 3.2 | 6.4 | 0.00 | 0.00 | 0.00 | 50 | 1013.2 |
| 20260504220610 | 20 | 184 | 9.7 | 14.5 | 0.00 | 0.00 | 0.00 | 47 | 1013.2 |
| 20260504220108 | 20 | 212 | 6.4 | 9.7 | 0.00 | 0.00 | 0.00 | 48 | 1013.3 |
| 20260504215603 | 20 | 152 | 3.2 | 6.4 | 0.00 | 0.00 | 0.00 | 48 | 1013.3 |
| 20260504215101 | 19 | 249 | 0.0 | 4.8 | 0.00 | 0.00 | 0.00 | 48 | 1013.3 |
| 20260504214557 | 19 | 223 | 3.2 | 6.4 | 0.00 | 0.00 | 0.00 | 48 | 1013.6 |
| 20260504214053 | 19 | 240 | 3.2 | 11.3 | 0.00 | 0.00 | 0.00 | 52 | 1013.4 |
| 20260504213550 | 19 | 252 | 4.8 | 11.3 | 0.00 | 0.00 | 0.00 | 49 | 1013.5 |
| 20260504213047 | 19 | 96 | 8.0 | 14.5 | 0.00 | 0.00 | 0.00 | 55 | 1013.5 |
| 20260504212543 | 20 | 284 | 6.4 | 9.7 | 0.00 | 0.00 | 0.00 | 49 | 1013.4 |
| 20260504212040 | 20 | 184 | 6.4 | 14.5 | 0.00 | 0.00 | 0.00 | 42 | 1013.2 |
| 20260504211537 | 20 | 266 | 9.7 | 14.5 | 0.00 | 0.00 | 0.00 | 42 | 1013.2 |
| 20260504211034 | 20 | 242 | 3.2 | 9.7 | 0.00 | 0.00 | 0.00 | 45 | 1013.0 |
| 20260504210531 | 20 | 196 | 4.8 | 12.9 | 0.00 | 0.00 | 0.00 | 44 | 1012.8 |
| 20260504210028 | 20 | 202 | 4.8 | 22.5 | 0.00 | 0.00 | 0.00 | 47 | 1012.9 |
| 20260504205526 | 20 | 246 | 3.2 | 12.9 | 0.00 | 0.00 | 0.00 | 48 | 1012.7 |
| 20260504205023 | 20 | 215 | 4.8 | 9.7 | 0.00 | 0.00 | 0.00 | 51 | 1012.6 |
| 20260504204521 | 20 | 245 | 3.2 | 17.7 | 0.00 | 0.00 | 0.00 | 43 | 1012.7 |
| 20260504204020 | 21 | 359 | 11.3 | 17.7 | 0.00 | 0.00 | 0.00 | 42 | 1012.7 |
| 20260504203518 | 20 | 253 | 4.8 | 9.7 | 0.00 | 0.00 | 0.00 | 42 | 1012.6 |
| 20260504203015 | 20 | 234 | 9.7 | 14.5 | 0.00 | 0.00 | 0.00 | 43 | 1012.5 |
| 20260504202510 | 21 | 231 | 6.4 | 16.1 | 0.00 | 0.00 | 0.00 | 43 | 1012.4 |
| 20260504202007 | 21 | 204 | 8.0 | 11.3 | 0.00 | 0.00 | 0.00 | 41 | 1012.4 |
| 20260504201504 | 21 | 223 | 12.9 | 14.5 | 0.00 | 0.00 | 0.00 | 43 | 1012.4 |
| 20260504201002 | 22 | 211 | 4.8 | 12.9 | 0.00 | 0.00 | 0.00 | 43 | 1012.4 |
| 20260504200458 | 21 | 141 | 1.6 | 12.9 | 0.00 | 0.00 | 0.00 | 41 | 1012.4 |
| 20260504195955 | 21 | 155 | 11.3 | 16.1 | 0.00 | 0.00 | 0.00 | 42 | 1012.5 |
| 20260504195451 | 20 | 96 | 1.6 | 16.1 | 0.00 | 0.00 | 0.00 | 43 | 1012.7 |
| 20260504194948 | 20 | 189 | 1.6 | 6.4 | 0.00 | 0.00 | 0.00 | 45 | 1012.8 |
| 20260504194444 | 21 | 257 | 4.8 | 9.7 | 0.00 | 0.00 | 0.00 | 43 | 1012.7 |
| 20260504193940 | 22 | 197 | 9.7 | 14.5 | 0.00 | 0.00 | 0.00 | 40 | 1012.7 |
| 20260504193437 | 21 | 177 | 6.4 | 17.7 | 0.00 | 0.00 | 0.00 | 42 | 1012.9 |
| 20260504192936 | 21 | 114 | 12.9 | 22.5 | 0.00 | 0.00 | 0.00 | 43 | 1013.0 |
| 20260504192432 | 21 | 245 | 11.3 | 16.1 | 0.00 | 0.00 | 0.00 | 40 | 1013.0 |
| 20260504191932 | 21 | 233 | 6.4 | 24.1 | 0.00 | 0.00 | 0.00 | 42 | 1013.5 |
| 20260504191429 | 20 | 222 | 11.3 | 16.1 | 0.00 | 0.00 | 0.00 | 45 | 1013.5 |
| 20260504190924 | 20 | 231 | 14.5 | 20.9 | 0.00 | 0.00 | 0.00 | 43 | 1013.6 |
| 20260504190420 | 20 | 175 | 14.5 | 22.5 | 0.00 | 0.00 | 0.00 | 45 | 1013.7 |
| 20260504185917 | 20 | 265 | 9.7 | 16.1 | 0.00 | 0.00 | 0.00 | 44 | 1013.5 |
| 20260504185415 | 21 | 273 | 4.8 | 17.7 | 0.00 | 0.00 | 0.00 | 47 | 1013.6 |
| 20260504184910 | 20 | 150 | 6.4 | 16.1 | 0.00 | 0.00 | 0.00 | 46 | 1013.7 |
| 20260504184406 | 19 | 175 | 8.0 | 12.9 | 0.00 | 0.00 | 0.00 | 49 | 1013.8 |
| 20260504183902 | 20 | 248 | 6.4 | 12.9 | 0.00 | 0.00 | 0.00 | 48 | 1013.8 |
| 20260504183400 | 19 | 147 | 8.0 | 17.7 | 0.00 | 0.00 | 0.00 | 46 | 1013.8 |
| 20260504182857 | 20 | 224 | 8.0 | 16.1 | 0.00 | 0.00 | 0.00 | 48 | 1013.8 |
| 20260504182354 | 20 | 272 | 4.8 | 14.5 | 0.00 | 0.00 | 0.00 | 49 | 1014.1 |
| 20260504181851 | 20 | 118 | 6.4 | 22.5 | 0.00 | 0.00 | 0.00 | 46 | 1014.0 |
| 20260504181348 | 20 | 267 | 4.8 | 17.7 | 0.00 | 0.00 | 0.00 | 45 | 1014.0 |
| 20260504180847 | 19 | 282 | 6.4 | 12.9 | 0.00 | 0.00 | 0.00 | 47 | 1014.0 |
| 20260504180345 | 20 | 173 | 9.7 | 16.1 | 0.00 | 0.00 | 0.00 | 47 | 1014.1 |
| 20260504175843 | 20 | 166 | 9.7 | 17.7 | 0.00 | 0.00 | 0.00 | 45 | 1014.3 |
| 20260504175339 | 18 | 193 | 6.4 | 14.5 | 0.00 | 0.00 | 0.00 | 47 | 1014.4 |
| 20260504174838 | 18 | 184 | 8.0 | 12.9 | 0.00 | 0.00 | 0.00 | 49 | 1014.5 |
| 20260504174335 | 18 | 191 | 11.3 | 20.9 | 0.00 | 0.00 | 0.00 | 47 | 1014.6 |
| 20260504173832 | 19 | 301 | 11.3 | 14.5 | 0.00 | 0.00 | 0.00 | 44 | 1014.4 |
| 20260504173329 | 19 | 210 | 8.0 | 11.3 | 0.00 | 0.00 | 0.00 | 46 | 1014.4 |
| 20260504172826 | 18 | 302 | 6.4 | 11.3 | 0.00 | 0.00 | 0.00 | 46 | 1014.8 |
| 20260504172322 | 18 | 250 | 12.9 | 16.1 | 0.00 | 0.00 | 0.00 | 45 | 1014.6 |
| 20260504171818 | 18 | 207 | 4.8 | 12.9 | 0.00 | 0.00 | 0.00 | 48 | 1014.8 |
| 20260504171315 | 17 | 239 | 4.8 | 17.7 | 0.00 | 0.00 | 0.00 | 45 | 1014.6 |
| 20260504170813 | 18 | 179 | 8.0 | 14.5 | 0.00 | 0.00 | 0.00 | 46 | 1014.8 |
| 20260504170309 | 18 | 234 | 4.8 | 9.7 | 0.00 | 0.00 | 0.00 | 45 | 1015.0 |
| 20260504160228 | 18 | 196 | 16.1 | 20.9 | 0.00 | 0.00 | 0.00 | 45 | 1015.6 |
| 20260504150653 | 17 | 255 | 6.4 | 16.1 | 0.00 | 0.00 | 0.00 | 48 | 1015.9 |
| 20260504150150 | 16 | 204 | 8.0 | 12.9 | 0.00 | 0.00 | 0.00 | 46 | 1015.9 |
| 20260504141119 | 16 | 259 | 3.2 | 14.5 | 0.00 | 0.00 | 0.00 | 45 | 1016.2 |
| 20260504140615 | 16 | 237 | 9.7 | 11.3 | 0.00 | 0.00 | 0.00 | 45 | 1016.0 |
| 20260504140111 | 16 | 258 | 6.4 | 12.9 | 0.00 | 0.00 | 0.00 | 46 | 1016.1 |
| 20260504130539 | 13 | 288 | 3.2 | 9.7 | 0.00 | 0.00 | 0.00 | 53 | 1016.4 |
| 20260504110427 | 4 | 98 | 0.0 | 0.0 | 0.00 | 0.00 | 0.00 | 85 | 1017.3 |
| 20260504100349 | 4 | 219 | 0.0 | 0.0 | 0.00 | 0.00 | 0.00 | 81 | 1017.4 |
| 20260504081742 | 4 | 66 | 1.6 | 1.6 | 0.00 | 0.00 | 0.00 | 79 | 1017.7 |
| 20260504081238 | 4 | 35 | 0.0 | 1.6 | 0.00 | 0.00 | 0.00 | 79 | 1017.6 |
| 20260504080735 | 3 | 75 | 0.0 | 0.0 | 0.00 | 0.00 | 0.00 | 78 | 1017.6 |
| 20260504080231 | 4 | 75 | 0.0 | 0.0 | 0.00 | 0.00 | 0.00 | 77 | 1017.7 |
| 20260504070159 | 3 | 94 | 0.0 | 0.0 | 0.00 | 0.00 | 0.00 | 81 | 1017.9 |
| 20260504060120 | 3 | 119 | 0.0 | 0.0 | 0.00 | 0.00 | 0.00 | 76 | 1018.2 |
| 20260504050548 | 5 | 137 | 0.0 | 0.0 | 0.00 | 0.00 | 0.00 | 70 | 1018.1 |
| 20260504045542 | 6 | 126 | 0.0 | 0.0 | 0.00 | 0.00 | 0.00 | 71 | 1018.0 |
| 20260504045037 | 5 | 87 | 0.0 | 0.0 | 0.00 | 0.00 | 0.00 | 72 | 1018.1 |
| 20260504044535 | 5 | 87 | 0.0 | 0.0 | 0.00 | 0.00 | 0.00 | 73 | 1018.0 |
| 20260504044032 | 5 | 87 | 0.0 | 0.0 | 0.00 | 0.00 | 0.00 | 73 | 1018.1 |
| 20260504043529 | 5 | 87 | 0.0 | 0.0 | 0.00 | 0.00 | 0.00 | 75 | 1018.0 |
| 20260504043026 | 5 | 77 | 0.0 | 0.0 | 0.00 | 0.00 | 0.00 | 73 | 1018.1 |
| 20260504042523 | 5 | 77 | 0.0 | 1.6 | 0.00 | 0.00 | 0.00 | 72 | 1018.1 |
| 20260504042020 | 5 | 144 | 0.0 | 0.0 | 0.00 | 0.00 | 0.00 | 73 | 1018.2 |
| 20260504041516 | 5 | 155 | 0.0 | 0.0 | 0.00 | 0.00 | 0.00 | 74 | 1018.2 |
| 20260504041012 | 5 | 256 | 0.0 | 1.6 | 0.00 | 0.00 | 0.00 | 76 | 1018.1 |
| 20260504040510 | 6 | 127 | 0.0 | 0.0 | 0.00 | 0.00 | 0.00 | 72 | 1018.1 |
| 20260504040007 | 5 | 108 | 1.6 | 1.6 | 0.00 | 0.00 | 0.00 | 68 | 1018.0 |
| 20260504035504 | 5 | 108 | 0.0 | 0.0 | 0.00 | 0.00 | 0.00 | 73 | 1018.1 |
| 20260504034959 | 5 | 108 | 0.0 | 0.0 | 0.00 | 0.00 | 0.00 | 73 | 1018.0 |
| 20260504034457 | 5 | 98 | 0.0 | 1.6 | 0.00 | 0.00 | 0.00 | 69 | 1018.1 |
| 20260504033954 | 5 | 131 | 0.0 | 0.0 | 0.00 | 0.00 | 0.00 | 72 | 1018.2 |
| 20260504033452 | 6 | 143 | 0.0 | 0.0 | 0.00 | 0.00 | 0.00 | 70 | 1017.9 |
| 20260504032949 | 5 | 132 | 1.6 | 3.2 | 0.00 | 0.00 | 0.00 | 69 | 1018.1 |
| 20260504032446 | 6 | 194 | 1.6 | 1.6 | 0.00 | 0.00 | 0.00 | 73 | 1018.2 |
| 20260504031942 | 6 | 95 | 1.6 | 1.6 | 0.00 | 0.00 | 0.00 | 67 | 1018.0 |
| 20260504031439 | 6 | 126 | 0.0 | 3.2 | 0.00 | 0.00 | 0.00 | 70 | 1018.1 |
| 20260504030936 | 6 | 128 | 0.0 | 0.0 | 0.00 | 0.00 | 0.00 | 68 | 1018.1 |
| 20260504030433 | 6 | 125 | 0.0 | 1.6 | 0.00 | 0.00 | 0.00 | 66 | 1018.3 |
| 20260504025929 | 6 | 137 | 0.0 | 0.0 | 0.00 | 0.00 | 0.00 | 68 | 1018.1 |
| 20260504025426 | 6 | 136 | 0.0 | 0.0 | 0.00 | 0.00 | 0.00 | 69 | 1018.3 |
| 20260504024923 | 6 | 176 | 0.0 | 0.0 | 0.00 | 0.00 | 0.00 | 68 | 1018.1 |
| 20260504024420 | 6 | 176 | 0.0 | 0.0 | 0.00 | 0.00 | 0.00 | 70 | 1018.1 |
| 20260504023917 | 6 | 162 | 0.0 | 1.6 | 0.00 | 0.00 | 0.00 | 68 | 1018.1 |
| 20260504023414 | 6 | 84 | 1.6 | 1.6 | 0.00 | 0.00 | 0.00 | 63 | 1018.2 |
| 20260504022909 | 6 | 89 | 0.0 | 0.0 | 0.00 | 0.00 | 0.00 | 69 | 1018.5 |
| 20260504022406 | 6 | 82 | 0.0 | 1.6 | 0.00 | 0.00 | 0.00 | 71 | 1018.3 |
| 20260504021902 | 6 | 123 | 1.6 | 1.6 | 0.00 | 0.00 | 0.00 | 66 | 1018.5 |
| 20260504021359 | 6 | 111 | 1.6 | 3.2 | 0.00 | 0.00 | 0.00 | 66 | 1018.3 |
| 20260504020856 | 6 | 101 | 0.0 | 0.0 | 0.00 | 0.00 | 0.00 | 68 | 1018.3 |
| 20260504020353 | 6 | 111 | 3.2 | 3.2 | 0.00 | 0.00 | 0.00 | 70 | 1018.3 |
| 20260504015849 | 6 | 51 | 4.8 | 4.8 | 0.00 | 0.00 | 0.00 | 67 | 1018.2 |
| 20260504015345 | 6 | 119 | 1.6 | 1.6 | 0.00 | 0.00 | 0.00 | 70 | 1018.3 |
| 20260504014841 | 6 | 177 | 0.0 | 1.6 | 0.00 | 0.00 | 0.00 | 61 | 1018.5 |
| 20260504014337 | 5 | 148 | 1.6 | 1.6 | 0.00 | 0.00 | 0.00 | 65 | 1018.3 |
| 20260504013835 | 5 | 91 | 0.0 | 1.6 | 0.00 | 0.00 | 0.00 | 68 | 1017.9 |
| 20260504013333 | 5 | 259 | 0.0 | 1.6 | 0.00 | 0.00 | 0.00 | 67 | 1017.9 |
| 20260504012830 | 6 | 273 | 1.6 | 3.2 | 0.00 | 0.00 | 0.00 | 67 | 1017.8 |
| 20260504012328 | 6 | 86 | 0.0 | 1.6 | 0.00 | 0.00 | 0.00 | 63 | 1017.7 |
| 20260504011825 | 5 | 81 | 1.6 | 4.8 | 0.00 | 0.00 | 0.00 | 63 | 1017.7 |
| 20260504011321 | 6 | 231 | 3.2 | 4.8 | 0.00 | 0.00 | 0.00 | 67 | 1017.5 |
| 20260504010817 | 6 | 85 | 0.0 | 0.0 | 0.00 | 0.00 | 0.00 | 62 | 1017.5 |
| 20260504010313 | 6 | 150 | 1.6 | 3.2 | 0.00 | 0.00 | 0.00 | 65 | 1017.5 |
| 20260504005809 | 6 | 231 | 0.0 | 0.0 | 0.00 | 0.00 | 0.00 | 61 | 1017.5 |
| 20260504005306 | 6 | 245 | 0.0 | 3.2 | 0.00 | 0.00 | 0.00 | 62 | 1017.4 |
| 20260504004804 | 6 | 71 | 4.8 | 4.8 | 0.00 | 0.00 | 0.00 | 57 | 1017.4 |
| 20260504004301 | 7 | 229 | 3.2 | 4.8 | 0.00 | 0.00 | 0.00 | 60 | 1017.5 |
| 20260504003757 | 7 | 84 | 3.2 | 4.8 | 0.00 | 0.00 | 0.00 | 53 | 1017.2 |
| 20260504003255 | 7 | 105 | 1.6 | 3.2 | 0.00 | 0.00 | 0.00 | 57 | 1017.3 |
| 20260504002752 | 8 | 100 | 3.2 | 4.8 | 0.00 | 0.00 | 0.00 | 51 | 1017.1 |
| 20260504002248 | 8 | 199 | 0.0 | 1.6 | 0.00 | 0.00 | 0.00 | 53 | 1017.3 |